Weather History for Boerne Stage Field, TX

Change the Weather History Date:

Tuesday, July 2, 2013

  Actual Average (KSAT) Record (KSAT)
Temperature  
Mean Temperature 71 °F 84 °F  
Max Temperature 87 °F 94 °F 106 °F (1894)
Min Temperature 55 °F 74 °F 64 °F (1924)
Degree Days  
Heating Degree Days 0 0  
Month to date heating degree days 0  
Since 1 June heating degree days 0  
Since 1 July heating degree days 0  
Cooling Degree Days 6 19  
Month to date cooling degree days 38  
Year to date cooling degree days 1190  
Since 1 June cooling degree days 561  
Growing Degree Days 21 (Base 50)    
Moisture  
Dew Point 50 °F    
Average Humidity 52    
Maximum Humidity 94    
Minimum Humidity 19    
Precipitation  
Precipitation 0.00 in 0.13 in 2.66 in (1885)
Month to date precipitation 0.25  
Year to date precipitation 16.36  
Snow  
Snow 0.00 in - - ()
Month to date snowfall  
Since 1 June snowfall  
Since 1 July snowfall  
Snow Depth -    
Sea Level Pressure  
Sea Level Pressure 30.07 in    
Wind  
Wind Speed 2 mph (NNE)    
Max Wind Speed 12 mph    
Max Gust Speed 18 mph    
Visibility 10 miles    
Events      
T = Trace of Precipitation, MM = Missing Value Source: NWS Daily Summary

Daily Weather History Graph

Daily Weather History Graph

Search for Another Location

Airport:

Trip Planner

Search our weather history database for the weather conditions in past years. The results will help you decide how hot, cold, wet, or windy it might be!

Date:

Astronomy

Jul. 02, 2013 Rise Set
Actual Time 6:38 AM CDT 8:39 PM CDT
Civil Twilight 6:11 AM CDT 9:06 PM CDT
Nautical Twilight 5:38 AM CDT 9:39 PM CDT
Astronomical Twilight 5:02 AM CDT 10:14 PM CDT
Moon 2:29 AM CDT (7/2) 4:04 PM CDT (7/2)
Length of Visible Light 14h 55m
Length of Day
14h 00m
Waning Crescent, 26% of the Moon is Illuminated
Jul 2
Waning Crescent
Jul 8
New
Jul 15
First Quarter
Jul 22
Full
Jul 29
Last Quarter

Hourly Weather History & Observations

Time (CDT) Temp. Heat Index Dew Point Humidity Pressure Visibility Wind Dir Wind Speed Gust Speed Precip Events Conditions
12:15 AM 62.6 °F - 53.6 °F 72% 30.07 in 10.0 mi Calm Calm - N/A   Clear
12:35 AM 60.8 °F - 53.6 °F 77% 30.07 in 10.0 mi Calm Calm - N/A   Clear
12:55 AM 60.8 °F - 53.6 °F 77% 30.07 in 10.0 mi Calm Calm - N/A   Clear
1:15 AM 60.8 °F - 53.6 °F 77% 30.07 in 10.0 mi Calm Calm - N/A   Clear
1:35 AM 59.0 °F - 53.6 °F 82% 30.07 in 10.0 mi Calm Calm - N/A   Clear
1:55 AM 59.0 °F - 53.6 °F 82% 30.07 in 10.0 mi Calm Calm - N/A   Clear
2:15 AM 59.0 °F - 53.6 °F 82% 30.07 in 10.0 mi Calm Calm - N/A   Clear
2:35 AM 59.0 °F - 53.6 °F 82% 30.07 in 10.0 mi Calm Calm - N/A   Clear
2:55 AM 59.0 °F - 53.6 °F 82% 30.07 in 10.0 mi Calm Calm - N/A   Clear
3:15 AM 59.0 °F - 53.6 °F 82% 30.07 in 10.0 mi Calm Calm - N/A   Clear
3:35 AM 59.0 °F - 53.6 °F 82% 30.06 in 10.0 mi Calm Calm - N/A   Clear
3:55 AM 59.0 °F - 53.6 °F 82% 30.07 in 10.0 mi Calm Calm - N/A   Clear
4:15 AM 59.0 °F - 53.6 °F 82% 30.07 in 10.0 mi Calm Calm - N/A   Clear
4:35 AM 59.0 °F - 53.6 °F 82% 30.07 in 10.0 mi Calm Calm - N/A   Clear
4:55 AM 57.2 °F - 53.6 °F 88% 30.07 in 10.0 mi Calm Calm - N/A   Clear
5:15 AM 57.2 °F - 53.6 °F 88% 30.08 in 10.0 mi Calm Calm - N/A   Clear
5:35 AM 55.4 °F - 53.6 °F 94% 30.08 in 10.0 mi Calm Calm - N/A   Clear
5:55 AM 55.4 °F - 53.6 °F 94% 30.09 in 10.0 mi Calm Calm - N/A   Clear
6:15 AM 55.4 °F - 53.6 °F 94% 30.09 in 10.0 mi Calm Calm - N/A   Clear
6:35 AM 57.2 °F - 53.6 °F 88% 30.09 in 10.0 mi Calm Calm - N/A   Clear
6:55 AM 57.2 °F - 53.6 °F 88% 30.10 in 10.0 mi Calm Calm - N/A   Clear
7:15 AM 59.0 °F - 53.6 °F 82% 30.10 in 10.0 mi Calm Calm - N/A   Clear
7:35 AM 60.8 °F - 55.4 °F 82% 30.10 in 10.0 mi Calm Calm - N/A   Clear
7:55 AM 64.4 °F - 57.2 °F 77% 30.12 in 10.0 mi Calm Calm - N/A   Clear
8:15 AM 69.8 °F - 55.4 °F 60% 30.12 in 10.0 mi Calm Calm - N/A   Clear
8:35 AM 71.6 °F - 53.6 °F 53% 30.13 in 10.0 mi NNW 4.6 mph - N/A   Clear
9:15 AM 75.2 °F - 53.6 °F 47% 30.13 in 10.0 mi North 5.8 mph - N/A   Clear
9:35 AM 75.2 °F - 55.4 °F 50% 30.14 in 10.0 mi North 4.6 mph - N/A   Clear
9:55 AM 77.0 °F - 53.6 °F 44% 30.14 in 10.0 mi NNE 6.9 mph - N/A   Clear
10:15 AM 78.8 °F - 55.4 °F 44% 30.14 in 10.0 mi NNE 5.8 mph - N/A   Clear
10:35 AM 78.8 °F - 55.4 °F 44% 30.14 in 10.0 mi NE 5.8 mph - N/A   Clear
10:55 AM 78.8 °F - 55.4 °F 44% 30.14 in 10.0 mi ENE 3.5 mph - N/A   Clear
11:15 AM 80.6 °F 80.3 °F 53.6 °F 39% 30.13 in 10.0 mi East 3.5 mph - N/A   Clear
11:35 AM 80.6 °F 80.3 °F 53.6 °F 39% 30.13 in 10.0 mi NNE 5.8 mph - N/A   Scattered Clouds
11:55 AM 80.6 °F - 51.8 °F 37% 30.13 in 10.0 mi NNE 6.9 mph - N/A   Scattered Clouds
12:15 PM 82.4 °F 81.4 °F 53.6 °F 37% 30.13 in 10.0 mi North 8.1 mph - N/A   Scattered Clouds
12:35 PM 82.4 °F - 51.8 °F 35% 30.12 in 10.0 mi North 10.4 mph - N/A   Clear
12:55 PM 82.4 °F - 50.0 °F 32% 30.11 in 10.0 mi NE 9.2 mph - N/A   Clear
1:15 PM 82.4 °F - 48.2 °F 30% 30.10 in 10.0 mi NW 10.4 mph - N/A   Scattered Clouds
1:35 PM 82.4 °F - 50.0 °F 32% 30.10 in 10.0 mi NNW 6.9 mph 16.1 mph N/A   Scattered Clouds
1:55 PM 84.2 °F - 48.2 °F 29% 30.09 in 10.0 mi NNW 11.5 mph 16.1 mph N/A   Scattered Clouds
2:15 PM 86.0 °F - 46.4 °F 25% 30.08 in 10.0 mi North 8.1 mph - N/A   Scattered Clouds
2:35 PM 86.0 °F - 46.4 °F 25% 30.08 in 10.0 mi NNE 9.2 mph - N/A   Scattered Clouds
2:55 PM 86.0 °F - 46.4 °F 25% 30.07 in 10.0 mi North 8.1 mph 17.3 mph N/A   Scattered Clouds
3:15 PM 86.0 °F - 44.6 °F 23% 30.06 in 10.0 mi NNE 9.2 mph 18.4 mph N/A   Scattered Clouds
3:35 PM 86.0 °F - 44.6 °F 23% 30.05 in 10.0 mi NE 5.8 mph - N/A   Scattered Clouds
3:55 PM 86.0 °F - 46.4 °F 25% 30.05 in 10.0 mi North 5.8 mph - N/A   Scattered Clouds
4:15 PM 86.0 °F - 44.6 °F 23% 30.04 in 10.0 mi North 9.2 mph - N/A   Scattered Clouds
4:35 PM 87.8 °F - 46.4 °F 24% 30.04 in 10.0 mi NNE 8.1 mph - N/A   Scattered Clouds
4:55 PM 84.2 °F - 44.6 °F 25% 30.03 in 10.0 mi ENE 6.9 mph - N/A   Mostly Cloudy
5:15 PM 87.8 °F - 42.8 °F 21% 30.03 in 10.0 mi North 8.1 mph - N/A   Scattered Clouds
5:35 PM 86.0 °F - 41.0 °F 20% 30.02 in 10.0 mi NNE 8.1 mph - N/A   Clear
5:55 PM 87.8 °F - 41.0 °F 19% 30.02 in 10.0 mi North 6.9 mph - N/A   Clear
6:15 PM 87.8 °F - 41.0 °F 19% 30.02 in 10.0 mi North 9.2 mph - N/A   Clear
6:35 PM 86.0 °F - 41.0 °F 20% 30.02 in 10.0 mi ENE 6.9 mph - N/A   Scattered Clouds
6:55 PM 86.0 °F - 42.8 °F 22% 30.02 in 10.0 mi NNE 6.9 mph - N/A   Clear
7:15 PM 86.0 °F - 41.0 °F 20% 30.02 in 10.0 mi NE 8.1 mph - N/A   Clear
7:35 PM 84.2 °F - 42.8 °F 23% 30.02 in 7.0 mi NE 5.8 mph - N/A   Clear
7:55 PM 82.4 °F - 42.8 °F 25% 30.02 in 10.0 mi NE 3.5 mph - N/A   Clear
8:15 PM 80.6 °F - 44.6 °F 28% 30.02 in 10.0 mi East 3.5 mph - N/A   Clear
8:35 PM 78.8 °F - 48.2 °F 34% 30.03 in 10.0 mi East 3.5 mph - N/A   Clear
8:55 PM 77.0 °F - 46.4 °F 34% 30.03 in 10.0 mi Calm Calm - N/A   Clear
9:15 PM 71.6 °F - 50.0 °F 46% 30.04 in 10.0 mi Calm Calm - N/A   Clear
9:35 PM 69.8 °F - 50.0 °F 49% 30.04 in 10.0 mi Calm Calm - N/A   Clear
9:55 PM 69.8 °F - 50.0 °F 49% 30.04 in 10.0 mi Calm Calm - N/A   Clear
10:15 PM 68.0 °F - 51.8 °F 56% 30.05 in 10.0 mi Calm Calm - N/A   Clear
10:35 PM 64.4 °F - 51.8 °F 64% 30.05 in 10.0 mi Calm Calm - N/A   Clear
10:55 PM 64.4 °F - 51.8 °F 64% 30.06 in 10.0 mi Calm Calm - N/A   Clear
11:15 PM 64.4 °F - 51.8 °F 64% 30.07 in 10.0 mi Calm Calm - N/A   Clear
11:35 PM 62.6 °F - 51.8 °F 68% 30.07 in 10.0 mi Calm Calm - N/A   Clear
11:55 PM 62.6 °F - 51.8 °F 68% 30.08 in 10.0 mi Calm Calm - N/A   Clear